TimeEDT,TemperatureF,Dew PointF,Humidity,Sea Level PressureIn,VisibilityMPH,Wind Direction,Wind SpeedMPH,Gust SpeedMPH,PrecipitationIn,Events,Conditions,WindDirDegrees,DateUTC
12:53 AM,75.9,73.9,94,30.18,4.0,Calm,Calm,-,N/A,,Overcast,0,2012-10-04 04:53:00
1:53 AM,75.9,75.0,97,30.17,5.0,Calm,Calm,-,N/A,,Mostly Cloudy,0,2012-10-04 05:53:00
2:53 AM,75.9,75.0,97,30.17,5.0,Calm,Calm,-,N/A,,Mostly Cloudy,0,2012-10-04 06:53:00
3:53 AM,75.9,73.9,94,30.15,6.0,SE,4.6,-,N/A,,Mostly Cloudy,130,2012-10-04 07:53:00
4:53 AM,75.9,73.9,94,30.16,9.0,East,3.5,-,N/A,,Mostly Cloudy,100,2012-10-04 08:53:00
5:53 AM,75.9,73.9,94,30.17,10.0,Calm,Calm,-,N/A,,Mostly Cloudy,0,2012-10-04 09:53:00
6:53 AM,75.0,73.9,96,30.18,10.0,Calm,Calm,-,N/A,,Mostly Cloudy,0,2012-10-04 10:53:00
7:53 AM,75.9,73.9,94,30.19,8.0,Calm,Calm,-,N/A,,Mostly Cloudy,0,2012-10-04 11:53:00
8:53 AM,78.1,75.0,90,30.20,8.0,NNW,4.6,-,N/A,,Mostly Cloudy,340,2012-10-04 12:53:00
9:53 AM,81.0,75.9,85,30.21,10.0,Calm,Calm,-,N/A,,Mostly Cloudy,0,2012-10-04 13:53:00
10:53 AM,82.9,75.0,77,30.20,10.0,SE,4.6,-,N/A,,Mostly Cloudy,130,2012-10-04 14:53:00
11:53 AM,87.1,73.9,65,30.20,10.0,SSW,5.8,-,N/A,,Scattered Clouds,200,2012-10-04 15:53:00
12:53 PM,88.0,73.9,63,30.18,10.0,South,6.9,-,N/A,,Mostly Cloudy,170,2012-10-04 16:53:00
1:53 PM,91.0,72.0,53,30.15,10.0,SE,9.2,-,N/A,,Mostly Cloudy,140,2012-10-04 17:53:00
2:03 PM,89.6,73.4,59,30.15,10.0,ESE,9.2,-,N/A,Thunderstorm,Thunderstorm,120,2012-10-04 18:03:00
2:53 PM,82.0,70.0,67,30.13,10.0,WNW,18.4,27.6,N/A,Thunderstorm,Thunderstorm,290,2012-10-04 18:53:00
2:57 PM,78.8,71.6,78,30.14,10.0,West,19.6,28.8,0.00,Rain-Thunderstorm,Light Thunderstorms and Rain,270,2012-10-04 18:57:00
3:07 PM,78.8,69.8,74,30.15,9.0,West,20.7,26.5,0.01,Rain-Thunderstorm,Light Thunderstorms and Rain,270,2012-10-04 19:07:00
3:14 PM,75.2,71.6,89,30.16,2.5,West,10.4,24.2,0.09,Rain-Thunderstorm,Heavy Thunderstorms and Rain,260,2012-10-04 19:14:00
3:24 PM,73.4,71.6,94,30.17,1.8,Variable,3.5,-,0.23,Rain-Thunderstorm,Heavy Thunderstorms and Rain,0,2012-10-04 19:24:00
3:40 PM,77.0,73.4,89,30.15,3.0,NNE,5.8,-,0.30,Rain-Thunderstorm,Light Thunderstorms and Rain,30,2012-10-04 19:40:00
3:53 PM,77.0,73.9,90,30.14,5.0,NE,11.5,-,0.31,Rain-Thunderstorm,Light Thunderstorms and Rain,40,2012-10-04 19:53:00
4:53 PM,77.0,73.0,88,30.14,7.0,ENE,6.9,-,0.00,Thunderstorm,Thunderstorm,60,2012-10-04 20:53:00
5:53 PM,77.0,73.9,90,30.16,10.0,South,3.5,-,0.00,Rain-Thunderstorm,Light Thunderstorms and Rain,180,2012-10-04 21:53:00
6:41 PM,75.2,73.4,94,30.16,7.0,Calm,Calm,-,0.10,Rain,Rain,0,2012-10-04 22:41:00
6:53 PM,75.9,73.9,94,30.15,8.0,South,3.5,-,0.13,Rain,Rain,190,2012-10-04 22:53:00
7:53 PM,75.9,75.0,97,30.18,9.0,West,4.6,-,0.07,Rain,Light Rain,270,2012-10-04 23:53:00
8:53 PM,77.0,75.0,94,30.17,10.0,North,4.6,-,0.01,,Overcast,350,2012-10-05 00:53:00
9:53 PM,75.9,75.0,97,30.19,10.0,NNW,3.5,-,N/A,,Overcast,330,2012-10-05 01:53:00
10:53 PM,75.9,75.0,97,30.18,9.0,WNW,5.8,-,N/A,,Overcast,290,2012-10-05 02:53:00
11:53 PM,77.0,75.9,96,30.17,10.0,NNE,5.8,-,N/A,,Overcast,30,2012-10-05 03:53:00